contact:dominique.lefevre@mio.osupytheas.fr, maurice.libes@osupytheas.fr, didier.mallarino@osupytheas.fr
Project:EMSO http://www.emso-fr.org/EMSO-France
Depth: 2436.0 m
Title:EMSO Ligure Ouest : Data MII capteur MICROCAT
DateTime_Computer,Latitude,Longitude,Temperature,Conductivity,Pressure,DateTime_Instrument
DateTime_Computer,Latitude,Longitude,degC,S m-1,dbar,DateTime_Instrument
2017-12-05T00:01:19Z,42.805,6.029,13.2935,4.59954,2472.01,2017-12-05T02:02:48Z
2017-12-05T00:04:22Z,42.805,6.029,13.2935,4.59956,2472.002,2017-12-05T02:05:51Z
2017-12-05T00:07:25Z,42.805,6.029,13.2939,4.59955,2472.024,2017-12-05T02:08:54Z
2017-12-05T00:10:27Z,42.805,6.029,13.2941,4.59955,2471.987,2017-12-05T02:11:57Z
2017-12-05T00:13:30Z,42.805,6.029,13.2936,4.59955,2472.01,2017-12-05T02:14:59Z
2017-12-05T00:16:33Z,42.805,6.029,13.2939,4.59955,2472.024,2017-12-05T02:18:02Z
2017-12-05T00:19:36Z,42.805,6.029,13.2935,4.59956,2472.002,2017-12-05T02:21:05Z
2017-12-05T00:22:39Z,42.805,6.029,13.2940,4.59955,2471.987,2017-12-05T02:24:08Z
2017-12-05T00:25:42Z,42.805,6.029,13.2939,4.59955,2472.01,2017-12-05T02:27:11Z
2017-12-05T00:28:45Z,42.805,6.029,13.2936,4.59955,2471.979,2017-12-05T02:30:14Z
2017-12-05T00:31:48Z,42.805,6.029,13.2939,4.59954,2472.002,2017-12-05T02:33:17Z
2017-12-05T00:34:51Z,42.805,6.029,13.2939,4.59954,2471.964,2017-12-05T02:36:20Z
2017-12-05T00:37:53Z,42.805,6.029,13.2936,4.59955,2472.002,2017-12-05T02:39:22Z
2017-12-05T00:40:56Z,42.805,6.029,13.2940,4.59955,2472.024,2017-12-05T02:42:25Z
2017-12-05T00:43:59Z,42.805,6.029,13.2936,4.59954,2471.979,2017-12-05T02:45:28Z
2017-12-05T00:47:02Z,42.805,6.029,13.2936,4.59954,2472.01,2017-12-05T02:48:31Z
2017-12-05T00:50:05Z,42.805,6.029,13.2939,4.59956,2471.964,2017-12-05T02:51:34Z
2017-12-05T00:53:08Z,42.805,6.029,13.2935,4.59954,2472.047,2017-12-05T02:54:37Z
2017-12-05T00:56:11Z,42.805,6.029,13.2937,4.59954,2471.979,2017-12-05T02:57:40Z
2017-12-05T00:59:14Z,42.805,6.029,13.2941,4.59954,2472.002,2017-12-05T03:00:43Z
2017-12-05T01:02:17Z,42.805,6.029,13.2934,4.59955,2471.964,2017-12-05T03:03:46Z
2017-12-05T01:05:19Z,42.805,6.029,13.2939,4.59955,2471.979,2017-12-05T03:06:48Z
2017-12-05T01:08:22Z,42.805,6.029,13.2939,4.59954,2471.957,2017-12-05T03:09:51Z
2017-12-05T01:11:25Z,42.805,6.029,13.2936,4.59954,2471.957,2017-12-05T03:12:54Z
2017-12-05T01:14:28Z,42.805,6.029,13.2937,4.59955,2471.964,2017-12-05T03:15:57Z
2017-12-05T01:17:31Z,42.805,6.029,13.2939,4.59954,2471.957,2017-12-05T03:19:00Z
2017-12-05T01:20:34Z,42.805,6.029,13.2936,4.59953,2472.002,2017-12-05T03:22:03Z
2017-12-05T01:23:37Z,42.805,6.029,13.2936,4.59954,2471.979,2017-12-05T03:25:06Z
2017-12-05T01:26:40Z,42.805,6.029,13.2934,4.59954,2471.957,2017-12-05T03:28:09Z
2017-12-05T01:29:43Z,42.805,6.029,13.2942,4.59953,2471.942,2017-12-05T03:31:12Z
2017-12-05T01:32:45Z,42.805,6.029,13.2939,4.59953,2471.957,2017-12-05T03:34:14Z
2017-12-05T01:35:48Z,42.805,6.029,13.2939,4.59955,2471.979,2017-12-05T03:37:17Z
2017-12-05T01:38:51Z,42.805,6.029,13.2941,4.59954,2472.002,2017-12-05T03:40:20Z
2017-12-05T01:41:54Z,42.805,6.029,13.2940,4.59954,2471.957,2017-12-05T03:43:23Z
2017-12-05T01:44:57Z,42.805,6.029,13.2940,4.59954,2472.002,2017-12-05T03:46:26Z
2017-12-05T01:48:00Z,42.805,6.029,13.2939,4.59953,2471.942,2017-12-05T03:49:29Z
2017-12-05T01:51:03Z,42.805,6.029,13.2939,4.59955,2471.979,2017-12-05T03:52:32Z
2017-12-05T01:54:06Z,42.805,6.029,13.2935,4.59955,2471.942,2017-12-05T03:55:35Z
2017-12-05T01:57:08Z,42.805,6.029,13.2935,4.59954,2471.964,2017-12-05T03:58:38Z
2017-12-05T02:00:11Z,42.805,6.029,13.2937,4.59954,2471.957,2017-12-05T04:01:40Z
2017-12-05T02:03:14Z,42.805,6.029,13.2938,4.59956,2471.912,2017-12-05T04:04:43Z
2017-12-05T02:06:17Z,42.805,6.029,13.2940,4.59954,2471.942,2017-12-05T04:07:46Z
2017-12-05T02:09:20Z,42.805,6.029,13.2938,4.59954,2471.957,2017-12-05T04:10:49Z
2017-12-05T02:12:23Z,42.805,6.029,13.2940,4.59954,2471.979,2017-12-05T04:13:52Z
2017-12-05T02:15:26Z,42.805,6.029,13.2938,4.59956,2471.942,2017-12-05T04:16:55Z
2017-12-05T02:18:29Z,42.805,6.029,13.2939,4.59955,2471.979,2017-12-05T04:19:58Z
2017-12-05T02:21:32Z,42.805,6.029,13.2935,4.59956,2471.979,2017-12-05T04:23:01Z
2017-12-05T02:24:34Z,42.805,6.029,13.2936,4.59955,2471.942,2017-12-05T04:26:04Z
2017-12-05T02:27:37Z,42.805,6.029,13.2939,4.59955,2471.934,2017-12-05T04:29:06Z
2017-12-05T02:30:40Z,42.805,6.029,13.2939,4.59955,2471.942,2017-12-05T04:32:09Z
2017-12-05T02:33:43Z,42.805,6.029,13.2938,4.59955,2471.934,2017-12-05T04:35:12Z
2017-12-05T02:36:46Z,42.805,6.029,13.2940,4.59954,2471.957,2017-12-05T04:38:15Z
2017-12-05T02:39:49Z,42.805,6.029,13.2939,4.59954,2471.934,2017-12-05T04:41:18Z
2017-12-05T02:42:52Z,42.805,6.029,13.2936,4.59955,2471.979,2017-12-05T04:44:21Z
2017-12-05T02:45:55Z,42.805,6.029,13.2942,4.59954,2471.934,2017-12-05T04:47:24Z
2017-12-05T02:48:58Z,42.805,6.029,13.2935,4.59954,2471.934,2017-12-05T04:50:27Z
2017-12-05T02:52:00Z,42.805,6.029,13.2936,4.59955,2471.942,2017-12-05T04:53:29Z
2017-12-05T02:55:03Z,42.805,6.029,13.2938,4.59954,2471.942,2017-12-05T04:56:32Z
2017-12-05T02:58:06Z,42.805,6.029,13.2936,4.59956,2471.957,2017-12-05T04:59:35Z
2017-12-05T03:01:09Z,42.805,6.029,13.2939,4.59955,2471.979,2017-12-05T05:02:38Z
2017-12-05T03:04:12Z,42.805,6.029,13.2937,4.59956,2471.919,2017-12-05T05:05:41Z
2017-12-05T03:07:15Z,42.805,6.029,13.2940,4.59955,2471.957,2017-12-05T05:08:44Z
2017-12-05T03:10:18Z,42.805,6.029,13.2939,4.59955,2471.964,2017-12-05T05:11:47Z
2017-12-05T03:13:21Z,42.805,6.029,13.2941,4.59954,2471.942,2017-12-05T05:14:50Z
2017-12-05T03:16:24Z,42.805,6.029,13.2935,4.59955,2471.957,2017-12-05T05:17:53Z
2017-12-05T03:19:26Z,42.805,6.029,13.2940,4.59956,2471.979,2017-12-05T05:20:55Z
2017-12-05T03:22:29Z,42.805,6.029,13.2937,4.59954,2471.942,2017-12-05T05:23:58Z
2017-12-05T03:25:32Z,42.805,6.029,13.2937,4.59956,2471.942,2017-12-05T05:27:01Z
2017-12-05T03:28:35Z,42.805,6.029,13.2939,4.59956,2471.979,2017-12-05T05:30:04Z
2017-12-05T03:31:38Z,42.805,6.029,13.2936,4.59955,2472.002,2017-12-05T05:33:07Z
2017-12-05T03:34:41Z,42.805,6.029,13.2937,4.59955,2471.979,2017-12-05T05:36:10Z
2017-12-05T03:37:44Z,42.805,6.029,13.2934,4.59954,2471.979,2017-12-05T05:39:13Z
2017-12-05T03:40:47Z,42.805,6.029,13.2939,4.59956,2472.002,2017-12-05T05:42:16Z
2017-12-05T03:43:50Z,42.805,6.029,13.2937,4.59955,2471.979,2017-12-05T05:45:19Z
2017-12-05T03:46:52Z,42.805,6.029,13.2933,4.59956,2471.979,2017-12-05T05:48:21Z
2017-12-05T03:49:55Z,42.805,6.029,13.2939,4.59956,2472.002,2017-12-05T05:51:24Z
2017-12-05T03:52:58Z,42.805,6.029,13.2939,4.59954,2471.964,2017-12-05T05:54:27Z
2017-12-05T03:56:01Z,42.805,6.029,13.2935,4.59955,2472.002,2017-12-05T05:57:30Z
2017-12-05T03:59:04Z,42.805,6.029,13.2935,4.59955,2472.002,2017-12-05T06:00:33Z
2017-12-05T04:02:07Z,42.805,6.029,13.2939,4.59956,2471.987,2017-12-05T06:03:36Z
2017-12-05T04:05:10Z,42.805,6.029,13.2940,4.59956,2471.987,2017-12-05T06:06:39Z
2017-12-05T04:08:13Z,42.805,6.029,13.2933,4.59956,2471.979,2017-12-05T06:09:42Z
2017-12-05T04:11:16Z,42.805,6.029,13.2936,4.59955,2472.024,2017-12-05T06:12:45Z
2017-12-05T04:14:18Z,42.805,6.029,13.2936,4.59955,2472.024,2017-12-05T06:15:47Z
2017-12-05T04:17:21Z,42.805,6.029,13.2939,4.59956,2472.01,2017-12-05T06:18:50Z
2017-12-05T04:20:24Z,42.805,6.029,13.2939,4.59957,2472.01,2017-12-05T06:21:53Z
2017-12-05T04:23:27Z,42.805,6.029,13.2939,4.59956,2472.047,2017-12-05T06:24:56Z
2017-12-05T04:26:30Z,42.805,6.029,13.2937,4.59957,2472.024,2017-12-05T06:27:59Z
2017-12-05T04:29:33Z,42.805,6.029,13.2939,4.59955,2472.032,2017-12-05T06:31:02Z
2017-12-05T04:32:36Z,42.805,6.029,13.2938,4.59955,2472.032,2017-12-05T06:34:05Z
2017-12-05T04:35:39Z,42.805,6.029,13.2939,4.59955,2472.047,2017-12-05T06:37:08Z
2017-12-05T04:38:41Z,42.805,6.029,13.2933,4.59956,2472.069,2017-12-05T06:40:11Z
2017-12-05T04:41:44Z,42.805,6.029,13.2939,4.59955,2472.047,2017-12-05T06:43:13Z
2017-12-05T04:44:47Z,42.805,6.029,13.2937,4.59955,2472.032,2017-12-05T06:46:16Z
2017-12-05T04:47:50Z,42.805,6.029,13.2937,4.59955,2472.032,2017-12-05T06:49:19Z
2017-12-05T04:50:53Z,42.805,6.029,13.2936,4.59956,2472.055,2017-12-05T06:52:22Z
2017-12-05T04:53:56Z,42.805,6.029,13.2936,4.59955,2472.069,2017-12-05T06:55:25Z
2017-12-05T04:56:59Z,42.805,6.029,13.2939,4.59956,2472.055,2017-12-05T06:58:28Z
2017-12-05T05:00:02Z,42.805,6.029,13.2939,4.59955,2472.055,2017-12-05T07:01:31Z
2017-12-05T05:03:05Z,42.805,6.029,13.2936,4.59956,2472.055,2017-12-05T07:04:34Z
2017-12-05T05:06:07Z,42.805,6.029,13.2938,4.59956,2472.092,2017-12-05T07:07:37Z
2017-12-05T05:09:10Z,42.805,6.029,13.2939,4.59955,2472.1,2017-12-05T07:10:39Z
2017-12-05T05:12:13Z,42.805,6.029,13.2938,4.59956,2472.115,2017-12-05T07:13:42Z
2017-12-05T05:15:16Z,42.805,6.029,13.2939,4.59956,2472.092,2017-12-05T07:16:45Z
2017-12-05T05:18:19Z,42.805,6.029,13.2938,4.59956,2472.1,2017-12-05T07:19:48Z
2017-12-05T05:21:22Z,42.805,6.029,13.2937,4.59958,2472.077,2017-12-05T07:22:51Z
2017-12-05T05:24:25Z,42.805,6.029,13.2936,4.59956,2472.137,2017-12-05T07:25:54Z
2017-12-05T05:27:28Z,42.805,6.029,13.2943,4.59956,2472.115,2017-12-05T07:28:57Z
2017-12-05T05:30:31Z,42.805,6.029,13.2939,4.59955,2472.115,2017-12-05T07:32:00Z
2017-12-05T05:33:33Z,42.805,6.029,13.2940,4.59956,2472.1,2017-12-05T07:35:03Z
2017-12-05T05:36:36Z,42.805,6.029,13.2937,4.59956,2472.137,2017-12-05T07:38:05Z
2017-12-05T05:39:39Z,42.805,6.029,13.2939,4.59956,2472.137,2017-12-05T07:41:08Z
2017-12-05T05:42:42Z,42.805,6.029,13.2934,4.59956,2472.145,2017-12-05T07:44:11Z
2017-12-05T05:45:45Z,42.805,6.029,13.2940,4.59956,2472.115,2017-12-05T07:47:14Z
2017-12-05T05:48:48Z,42.805,6.029,13.2937,4.59958,2472.16,2017-12-05T07:50:17Z
2017-12-05T05:51:51Z,42.805,6.029,13.2941,4.59956,2472.182,2017-12-05T07:53:20Z
2017-12-05T05:54:54Z,42.805,6.029,13.2934,4.59956,2472.16,2017-12-05T07:56:23Z
2017-12-05T05:57:57Z,42.805,6.029,13.2938,4.59956,2472.145,2017-12-05T07:59:26Z
2017-12-05T06:00:59Z,42.805,6.029,13.2939,4.59956,2472.16,2017-12-05T08:02:29Z
2017-12-05T06:04:02Z,42.805,6.029,13.2935,4.59956,2472.16,2017-12-05T08:05:31Z
2017-12-05T06:07:05Z,42.805,6.029,13.2939,4.59956,2472.182,2017-12-05T08:08:34Z
2017-12-05T06:10:08Z,42.805,6.029,13.2938,4.59956,2472.19,2017-12-05T08:11:37Z
2017-12-05T06:13:11Z,42.805,6.029,13.2937,4.59956,2472.168,2017-12-05T08:14:40Z
2017-12-05T06:16:14Z,42.805,6.029,13.2939,4.59956,2472.182,2017-12-05T08:17:43Z
2017-12-05T06:19:17Z,42.805,6.029,13.2937,4.59956,2472.182,2017-12-05T08:20:46Z
2017-12-05T06:22:20Z,42.805,6.029,13.2937,4.59957,2472.145,2017-12-05T08:23:49Z
2017-12-05T06:25:23Z,42.805,6.029,13.2934,4.59958,2472.19,2017-12-05T08:26:52Z
2017-12-05T06:28:25Z,42.805,6.029,13.2934,4.59956,2472.182,2017-12-05T08:29:54Z
2017-12-05T06:31:28Z,42.805,6.029,13.2939,4.59956,2472.205,2017-12-05T08:32:57Z
2017-12-05T06:34:31Z,42.805,6.029,13.2935,4.59956,2472.227,2017-12-05T08:36:00Z
2017-12-05T06:37:34Z,42.805,6.029,13.2939,4.59956,2472.205,2017-12-05T08:39:03Z
2017-12-05T06:40:37Z,42.805,6.029,13.2933,4.59956,2472.19,2017-12-05T08:42:06Z
2017-12-05T06:43:40Z,42.805,6.029,13.2940,4.59956,2472.213,2017-12-05T08:45:09Z
2017-12-05T06:46:43Z,42.805,6.029,13.2940,4.59957,2472.227,2017-12-05T08:48:12Z
2017-12-05T06:49:46Z,42.805,6.029,13.2941,4.59956,2472.25,2017-12-05T08:51:15Z
2017-12-05T06:52:49Z,42.805,6.029,13.2941,4.59956,2472.213,2017-12-05T08:54:18Z
2017-12-05T06:55:51Z,42.805,6.029,13.2940,4.59957,2472.213,2017-12-05T08:57:20Z
2017-12-05T06:58:54Z,42.805,6.029,13.2938,4.59957,2472.236,2017-12-05T09:00:23Z
2017-12-05T07:01:57Z,42.805,6.029,13.2940,4.59958,2472.242,2017-12-05T09:03:26Z
2017-12-05T07:05:00Z,42.805,6.029,13.2940,4.59956,2472.236,2017-12-05T09:06:29Z
2017-12-05T07:08:03Z,42.805,6.029,13.2940,4.59956,2472.25,2017-12-05T09:09:32Z
2017-12-05T07:11:06Z,42.805,6.029,13.2940,4.59957,2472.25,2017-12-05T09:12:35Z
2017-12-05T07:14:09Z,42.805,6.029,13.2939,4.59956,2472.25,2017-12-05T09:15:38Z
2017-12-05T07:17:12Z,42.805,6.029,13.2933,4.59957,2472.227,2017-12-05T09:18:41Z
2017-12-05T07:20:14Z,42.805,6.029,13.2936,4.59956,2472.25,2017-12-05T09:21:44Z
2017-12-05T07:23:17Z,42.805,6.029,13.2940,4.59958,2472.236,2017-12-05T09:24:46Z
2017-12-05T07:26:20Z,42.805,6.029,13.2937,4.59956,2472.227,2017-12-05T09:27:49Z
2017-12-05T07:29:23Z,42.805,6.029,13.2934,4.59956,2472.258,2017-12-05T09:30:52Z
2017-12-05T07:32:26Z,42.805,6.029,13.2939,4.59957,2472.258,2017-12-05T09:33:55Z
2017-12-05T07:35:29Z,42.805,6.029,13.2938,4.59957,2472.272,2017-12-05T09:36:58Z
2017-12-05T07:38:32Z,42.805,6.029,13.2939,4.59958,2472.236,2017-12-05T09:40:01Z
2017-12-05T07:41:35Z,42.805,6.029,13.2938,4.59956,2472.258,2017-12-05T09:43:04Z
2017-12-05T07:44:38Z,42.805,6.029,13.2940,4.59956,2472.236,2017-12-05T09:46:07Z
2017-12-05T07:47:40Z,42.805,6.029,13.2935,4.59957,2472.25,2017-12-05T09:49:10Z
2017-12-05T07:50:43Z,42.805,6.029,13.2935,4.59957,2472.272,2017-12-05T09:52:12Z
2017-12-05T07:53:46Z,42.805,6.029,13.2939,4.59957,2472.213,2017-12-05T09:55:15Z
2017-12-05T07:56:49Z,42.805,6.029,13.2939,4.59956,2472.227,2017-12-05T09:58:18Z
2017-12-05T07:59:52Z,42.805,6.029,13.2939,4.59956,2472.213,2017-12-05T10:01:21Z
2017-12-05T08:02:55Z,42.805,6.029,13.2938,4.59956,2472.272,2017-12-05T10:04:24Z
2017-12-05T08:05:58Z,42.805,6.029,13.2940,4.59956,2472.25,2017-12-05T10:07:27Z
2017-12-05T08:09:01Z,42.805,6.029,13.2937,4.59958,2472.281,2017-12-05T10:10:30Z
2017-12-05T08:12:04Z,42.805,6.029,13.2937,4.59956,2472.25,2017-12-05T10:13:33Z
2017-12-05T08:15:06Z,42.805,6.029,13.2941,4.59956,2472.258,2017-12-05T10:16:36Z
2017-12-05T08:18:09Z,42.805,6.029,13.2939,4.59957,2472.25,2017-12-05T10:19:38Z
2017-12-05T08:21:12Z,42.805,6.029,13.2937,4.59956,2472.25,2017-12-05T10:22:41Z
2017-12-05T08:24:15Z,42.805,6.029,13.2933,4.59956,2472.236,2017-12-05T10:25:44Z
2017-12-05T08:27:18Z,42.805,6.029,13.2937,4.59956,2472.258,2017-12-05T10:28:47Z
2017-12-05T08:30:21Z,42.805,6.029,13.2938,4.59956,2472.213,2017-12-05T10:31:50Z
2017-12-05T08:33:24Z,42.805,6.029,13.2935,4.59956,2472.25,2017-12-05T10:34:53Z
2017-12-05T08:36:27Z,42.805,6.029,13.2937,4.59957,2472.258,2017-12-05T10:37:56Z
2017-12-05T08:39:30Z,42.805,6.029,13.2935,4.59958,2472.272,2017-12-05T10:40:59Z
2017-12-05T08:42:33Z,42.805,6.029,13.2940,4.59957,2472.258,2017-12-05T10:44:02Z
2017-12-05T08:45:35Z,42.805,6.029,13.2935,4.59957,2472.281,2017-12-05T10:47:04Z
2017-12-05T08:48:38Z,42.805,6.029,13.2941,4.59957,2472.295,2017-12-05T10:50:07Z
2017-12-05T08:51:41Z,42.805,6.029,13.2943,4.59956,2472.25,2017-12-05T10:53:10Z
2017-12-05T08:54:44Z,42.805,6.029,13.2939,4.59957,2472.272,2017-12-05T10:56:13Z
2017-12-05T08:57:47Z,42.805,6.029,13.2940,4.59956,2472.258,2017-12-05T10:59:16Z
2017-12-05T09:00:50Z,42.805,6.029,13.2939,4.59957,2472.25,2017-12-05T11:02:19Z
2017-12-05T09:03:53Z,42.805,6.029,13.2935,4.59957,2472.25,2017-12-05T11:05:22Z
2017-12-05T09:06:56Z,42.805,6.029,13.2940,4.59956,2472.272,2017-12-05T11:08:25Z
2017-12-05T09:09:58Z,42.805,6.029,13.2936,4.59956,2472.25,2017-12-05T11:11:28Z
2017-12-05T09:13:01Z,42.805,6.029,13.2938,4.59956,2472.258,2017-12-05T11:14:30Z
2017-12-05T09:16:04Z,42.805,6.029,13.2939,4.59956,2472.227,2017-12-05T11:17:33Z
2017-12-05T09:19:07Z,42.805,6.029,13.2937,4.59956,2472.25,2017-12-05T11:20:36Z
2017-12-05T09:22:10Z,42.805,6.029,13.2939,4.59956,2472.258,2017-12-05T11:23:39Z
2017-12-05T09:25:13Z,42.805,6.029,13.2935,4.59956,2472.236,2017-12-05T11:26:42Z
2017-12-05T09:28:16Z,42.805,6.029,13.2936,4.59956,2472.272,2017-12-05T11:29:45Z
2017-12-05T09:31:19Z,42.805,6.029,13.2940,4.59956,2472.236,2017-12-05T11:32:48Z
2017-12-05T09:34:22Z,42.805,6.029,13.2936,4.59956,2472.213,2017-12-05T11:35:51Z
2017-12-05T09:37:25Z,42.805,6.029,13.2942,4.59956,2472.25,2017-12-05T11:38:54Z
2017-12-05T09:40:27Z,42.805,6.029,13.2938,4.59957,2472.25,2017-12-05T11:41:57Z
2017-12-05T09:43:30Z,42.805,6.029,13.2937,4.59957,2472.227,2017-12-05T11:44:59Z
2017-12-05T09:46:33Z,42.805,6.029,13.2939,4.59957,2472.25,2017-12-05T11:48:02Z
2017-12-05T09:49:36Z,42.805,6.029,13.2933,4.59956,2472.236,2017-12-05T11:51:05Z
2017-12-05T09:52:39Z,42.805,6.029,13.2935,4.59957,2472.236,2017-12-05T11:54:08Z
2017-12-05T09:55:42Z,42.805,6.029,13.2933,4.59956,2472.236,2017-12-05T11:57:11Z
2017-12-05T09:58:45Z,42.805,6.029,13.2938,4.59956,2472.25,2017-12-05T12:00:14Z
2017-12-05T10:01:48Z,42.805,6.029,13.2938,4.59956,2472.272,2017-12-05T12:03:17Z
2017-12-05T10:04:51Z,42.805,6.029,13.2940,4.59956,2472.25,2017-12-05T12:06:20Z
2017-12-05T10:07:53Z,42.805,6.029,13.2936,4.59956,2472.25,2017-12-05T12:09:23Z
2017-12-05T10:10:56Z,42.805,6.029,13.2939,4.59956,2472.25,2017-12-05T12:12:25Z
2017-12-05T10:13:59Z,42.805,6.029,13.2937,4.59956,2472.227,2017-12-05T12:15:28Z
2017-12-05T10:17:02Z,42.805,6.029,13.2937,4.59956,2472.213,2017-12-05T12:18:31Z
2017-12-05T10:20:05Z,42.805,6.029,13.2934,4.59956,2472.25,2017-12-05T12:21:34Z
2017-12-05T10:23:08Z,42.805,6.029,13.2936,4.59956,2472.272,2017-12-05T12:24:37Z
2017-12-05T10:26:11Z,42.805,6.029,13.2940,4.59956,2472.258,2017-12-05T12:27:40Z
2017-12-05T10:29:14Z,42.805,6.029,13.2940,4.59956,2472.205,2017-12-05T12:30:43Z
2017-12-05T10:32:17Z,42.805,6.029,13.2941,4.59956,2472.227,2017-12-05T12:33:46Z
2017-12-05T10:35:19Z,42.805,6.029,13.2939,4.59956,2472.25,2017-12-05T12:36:49Z
2017-12-05T10:38:22Z,42.805,6.029,13.2940,4.59956,2472.236,2017-12-05T12:39:51Z
2017-12-05T10:41:25Z,42.805,6.029,13.2938,4.59956,2472.227,2017-12-05T12:42:54Z
2017-12-05T10:44:28Z,42.805,6.029,13.2940,4.59956,2472.205,2017-12-05T12:45:57Z
2017-12-05T10:47:31Z,42.805,6.029,13.2937,4.59956,2472.205,2017-12-05T12:49:00Z
2017-12-05T10:50:34Z,42.805,6.029,13.2938,4.59956,2472.213,2017-12-05T12:52:03Z
2017-12-05T10:53:37Z,42.805,6.029,13.2939,4.59956,2472.25,2017-12-05T12:55:06Z
2017-12-05T10:56:40Z,42.805,6.029,13.2935,4.59956,2472.19,2017-12-05T12:58:09Z
2017-12-05T10:59:43Z,42.805,6.029,13.2942,4.59956,2472.213,2017-12-05T13:01:12Z
2017-12-05T11:02:46Z,42.805,6.029,13.2936,4.59957,2472.227,2017-12-05T13:04:15Z
2017-12-05T11:05:48Z,42.805,6.029,13.2940,4.59956,2472.182,2017-12-05T13:07:18Z
2017-12-05T11:08:51Z,42.805,6.029,13.2940,4.59956,2472.227,2017-12-05T13:10:20Z
2017-12-05T11:11:54Z,42.805,6.029,13.2935,4.59956,2472.19,2017-12-05T13:13:23Z
2017-12-05T11:14:57Z,42.805,6.029,13.2940,4.59957,2472.227,2017-12-05T13:16:26Z
2017-12-05T11:18:00Z,42.805,6.029,13.2936,4.59959,2472.168,2017-12-05T13:19:29Z
2017-12-05T11:21:03Z,42.805,6.029,13.2935,4.59957,2472.182,2017-12-05T13:22:32Z
2017-12-05T11:24:06Z,42.805,6.029,13.2937,4.59956,2472.205,2017-12-05T13:25:35Z
2017-12-05T11:27:09Z,42.805,6.029,13.2935,4.59958,2472.182,2017-12-05T13:28:38Z
2017-12-05T11:30:12Z,42.805,6.029,13.2941,4.59956,2472.19,2017-12-05T13:31:41Z
2017-12-05T11:33:14Z,42.805,6.029,13.2935,4.59956,2472.205,2017-12-05T13:34:44Z
2017-12-05T11:36:17Z,42.805,6.029,13.2937,4.59956,2472.182,2017-12-05T13:37:46Z
2017-12-05T11:39:20Z,42.805,6.029,13.2942,4.59955,2472.182,2017-12-05T13:40:49Z
2017-12-05T11:42:23Z,42.805,6.029,13.2936,4.59956,2472.182,2017-12-05T13:43:52Z
2017-12-05T11:45:26Z,42.805,6.029,13.2937,4.59956,2472.168,2017-12-05T13:46:55Z
2017-12-05T11:48:29Z,42.805,6.029,13.2938,4.59955,2472.182,2017-12-05T13:49:58Z
2017-12-05T11:51:32Z,42.805,6.029,13.2935,4.59956,2472.145,2017-12-05T13:53:01Z
2017-12-05T11:54:35Z,42.805,6.029,13.2940,4.59956,2472.145,2017-12-05T13:56:04Z
2017-12-05T11:57:38Z,42.805,6.029,13.2937,4.59957,2472.182,2017-12-05T13:59:07Z
2017-12-05T12:00:40Z,42.805,6.029,13.2936,4.59956,2472.182,2017-12-05T14:02:10Z
2017-12-05T12:03:43Z,42.805,6.029,13.2938,4.59955,2472.145,2017-12-05T14:05:12Z
2017-12-05T12:06:46Z,42.805,6.029,13.2933,4.59956,2472.182,2017-12-05T14:08:15Z
2017-12-05T12:09:49Z,42.805,6.029,13.2936,4.59955,2472.123,2017-12-05T14:11:18Z
2017-12-05T12:12:52Z,42.805,6.029,13.2935,4.59956,2472.145,2017-12-05T14:14:21Z
2017-12-05T12:15:55Z,42.805,6.029,13.2940,4.59956,2472.123,2017-12-05T14:17:24Z
2017-12-05T12:18:58Z,42.805,6.029,13.2934,4.59957,2472.19,2017-12-05T14:20:27Z
2017-12-05T12:22:01Z,42.805,6.029,13.2936,4.59957,2472.115,2017-12-05T14:23:30Z
2017-12-05T12:25:04Z,42.805,6.029,13.2938,4.59955,2472.137,2017-12-05T14:26:33Z
2017-12-05T12:28:06Z,42.805,6.029,13.2935,4.59956,2472.137,2017-12-05T14:29:36Z
2017-12-05T12:31:09Z,42.805,6.029,13.2935,4.59955,2472.16,2017-12-05T14:32:38Z
2017-12-05T12:34:12Z,42.805,6.029,13.2940,4.59956,2472.137,2017-12-05T14:35:41Z
2017-12-05T12:37:15Z,42.805,6.029,13.2935,4.59955,2472.137,2017-12-05T14:38:44Z
2017-12-05T12:40:18Z,42.805,6.029,13.2932,4.59955,2472.123,2017-12-05T14:41:47Z
2017-12-05T12:43:21Z,42.805,6.029,13.2935,4.59956,2472.1,2017-12-05T14:44:50Z
2017-12-05T12:46:24Z,42.805,6.029,13.2938,4.59954,2472.145,2017-12-05T14:47:53Z
2017-12-05T12:49:27Z,42.805,6.029,13.2938,4.59956,2472.115,2017-12-05T14:50:56Z
2017-12-05T12:52:30Z,42.805,6.029,13.2939,4.59955,2472.115,2017-12-05T14:53:59Z
2017-12-05T12:55:33Z,42.805,6.029,13.2939,4.59955,2472.115,2017-12-05T14:57:02Z
2017-12-05T12:58:35Z,42.805,6.029,13.2934,4.59956,2472.123,2017-12-05T15:00:05Z
2017-12-05T13:01:38Z,42.805,6.029,13.2936,4.59955,2472.115,2017-12-05T15:03:07Z
2017-12-05T13:04:41Z,42.805,6.029,13.2935,4.59956,2472.092,2017-12-05T15:06:10Z
2017-12-05T13:07:44Z,42.805,6.029,13.2939,4.59956,2472.115,2017-12-05T15:09:13Z
2017-12-05T13:10:47Z,42.805,6.029,13.2938,4.59956,2472.092,2017-12-05T15:12:16Z
2017-12-05T13:13:50Z,42.805,6.029,13.2939,4.59956,2472.1,2017-12-05T15:15:19Z
2017-12-05T13:16:53Z,42.805,6.029,13.2943,4.59955,2472.115,2017-12-05T15:18:22Z
2017-12-05T13:19:56Z,42.805,6.029,13.2937,4.59956,2472.077,2017-12-05T15:21:25Z
2017-12-05T13:22:59Z,42.805,6.029,13.2934,4.59955,2472.077,2017-12-05T15:24:28Z
2017-12-05T13:26:01Z,42.805,6.029,13.2936,4.59957,2472.115,2017-12-05T15:27:30Z
2017-12-05T13:29:04Z,42.805,6.029,13.2935,4.59956,2472.055,2017-12-05T15:30:33Z
2017-12-05T13:32:07Z,42.805,6.029,13.2937,4.59955,2472.115,2017-12-05T15:33:36Z
2017-12-05T13:35:10Z,42.805,6.029,13.2937,4.59955,2472.077,2017-12-05T15:36:39Z
2017-12-05T13:38:13Z,42.805,6.029,13.2934,4.59955,2472.092,2017-12-05T15:39:42Z
2017-12-05T13:41:16Z,42.805,6.029,13.2937,4.59955,2472.092,2017-12-05T15:42:45Z
2017-12-05T13:44:19Z,42.805,6.029,13.2940,4.59956,2472.092,2017-12-05T15:45:48Z
2017-12-05T13:47:22Z,42.805,6.029,13.2937,4.59956,2472.055,2017-12-05T15:48:51Z
2017-12-05T13:50:25Z,42.805,6.029,13.2940,4.59956,2472.055,2017-12-05T15:51:54Z
2017-12-05T13:53:27Z,42.805,6.029,13.2939,4.59956,2472.069,2017-12-05T15:54:57Z
2017-12-05T13:56:30Z,42.805,6.029,13.2938,4.59955,2472.077,2017-12-05T15:57:59Z
2017-12-05T13:59:33Z,42.805,6.029,13.2935,4.59956,2472.069,2017-12-05T16:01:02Z
2017-12-05T14:02:36Z,42.805,6.029,13.2934,4.59955,2472.069,2017-12-05T16:04:05Z
2017-12-05T14:05:39Z,42.805,6.029,13.2938,4.59955,2472.069,2017-12-05T16:07:08Z
2017-12-05T14:08:42Z,42.805,6.029,13.2933,4.59955,2472.055,2017-12-05T16:10:11Z
2017-12-05T14:11:45Z,42.805,6.029,13.2943,4.59956,2472.047,2017-12-05T16:13:14Z
2017-12-05T14:14:48Z,42.805,6.029,13.2939,4.59956,2472.047,2017-12-05T16:16:17Z
2017-12-05T14:17:51Z,42.805,6.029,13.2938,4.59956,2472.024,2017-12-05T16:19:20Z
2017-12-05T14:20:53Z,42.805,6.029,13.2940,4.59957,2472.055,2017-12-05T16:22:23Z
2017-12-05T14:23:56Z,42.805,6.029,13.2937,4.59957,2472.047,2017-12-05T16:25:25Z
2017-12-05T14:26:59Z,42.805,6.029,13.2935,4.59956,2472.032,2017-12-05T16:28:28Z
2017-12-05T14:30:02Z,42.805,6.029,13.2936,4.59954,2472.047,2017-12-05T16:31:31Z
2017-12-05T14:33:05Z,42.805,6.029,13.2939,4.59956,2472.047,2017-12-05T16:34:34Z
2017-12-05T14:36:08Z,42.805,6.029,13.2938,4.59957,2472.047,2017-12-05T16:37:37Z
2017-12-05T14:39:11Z,42.805,6.029,13.2938,4.59955,2472.032,2017-12-05T16:40:40Z
2017-12-05T14:42:14Z,42.805,6.029,13.2935,4.59956,2472.047,2017-12-05T16:43:43Z
2017-12-05T14:45:17Z,42.805,6.029,13.2938,4.59957,2472.069,2017-12-05T16:46:46Z
2017-12-05T14:48:20Z,42.805,6.029,13.2936,4.59957,2472.024,2017-12-05T16:49:49Z
2017-12-05T14:51:22Z,42.805,6.029,13.2939,4.59957,2472.047,2017-12-05T16:52:51Z
2017-12-05T14:54:25Z,42.805,6.029,13.2938,4.59957,2472.01,2017-12-05T16:55:54Z
2017-12-05T14:57:28Z,42.805,6.029,13.2940,4.59956,2472.047,2017-12-05T16:58:57Z